Date,TemperatureHighF,TemperatureAvgF,TemperatureLowF,DewpointHighF,DewpointAvgF,DewpointLowF,HumidityHigh,HumidityAvg,HumidityLow,PressureMaxIn,PressureMinIn,WindSpeedMaxMPH,WindSpeedAvgMPH,GustSpeedMaxMPH,PrecipitationSumIn
2013-2-1,31.4,28.3,23.2,22.0,12.0,7.0,78,51,38,30.28,29.85,12,4,0,0.00
2013-2-2,31.7,24.9,17.8,22.0,10.6,6.0,91,57,36,30.34,30.07,11,3,0,0.00
2013-2-3,31.6,26.0,20.6,25.0,22.2,19.0,95,86,70,30.07,29.81,5,1,0,0.04
2013-2-4,30.1,26.2,21.9,24.0,15.0,11.0,93,64,46,30.03,29.86,13,4,0,0.00
2013-2-5,33.4,30.7,26.6,32.0,28.7,22.0,96,92,83,29.98,29.90,4,0,0,0.01
2013-2-6,39.6,33.3,26.0,31.0,25.6,19.0,97,75,51,30.37,29.92,12,2,0,0.01
2013-2-7,35.2,28.0,20.6,32.0,20.3,15.0,89,74,58,30.51,30.30,6,1,0,0.00
2013-2-8,41.5,37.2,29.7,41.0,35.8,29.0,98,94,87,30.30,29.63,11,4,0,0.95
2013-2-9,34.3,28.7,22.0,30.0,20.4,9.0,98,74,49,30.36,29.76,15,4,0,0.13
2013-2-10,41.1,26.6,12.7,25.0,14.3,9.0,88,63,30,30.50,30.34,7,1,0,0.06
2013-2-11,54.4,45.4,30.8,54.0,44.1,26.0,100,95,81,30.36,29.66,11,3,0,0.28
2013-2-12,46.9,41.0,30.4,43.0,29.1,26.0,94,64,49,29.99,29.76,14,4,0,0.00
2013-2-13,42.9,34.2,24.2,32.0,28.1,23.0,97,80,56,29.98,29.69,5,1,0,0.02
2013-2-14,48.1,37.4,32.3,36.0,33.3,31.0,99,87,54,30.04,29.71,5,2,0,0.15
2013-2-15,58.4,43.0,29.8,39.0,34.6,29.0,98,75,40,30.05,29.92,8,2,0,0.01
2013-2-16,43.5,36.9,31.7,35.0,29.7,19.0,93,76,57,29.97,29.74,5,2,0,0.00
2013-2-17,32.7,28.3,20.0,18.0,8.4,2.0,59,44,34,30.05,29.69,18,6,0,0.00
2013-2-18,36.3,26.4,18.1,15.0,8.1,2.0,59,47,34,30.29,30.06,14,4,0,0.00
2013-2-19,52.0,39.4,26.5,46.0,32.3,15.0,98,77,51,30.24,29.70,17,3,0,0.29
2013-2-20,38.4,30.8,25.7,29.0,16.3,11.0,70,55,44,30.04,29.77,17,6,0,0.00
2013-2-21,36.2,29.1,23.6,17.0,15.2,12.0,67,57,45,30.29,30.02,13,5,0,0.00
2013-2-22,37.1,31.1,22.6,35.0,24.8,16.0,94,77,67,30.41,30.27,7,1,0,0.01
2013-2-23,45.8,41.0,35.2,46.0,40.6,34.0,99,98,94,30.27,29.79,7,2,0,0.40
2013-2-24,48.1,39.5,32.4,41.0,33.7,23.0,99,81,58,30.01,29.76,15,4,0,0.01
2013-2-25,44.5,36.5,27.9,31.0,27.1,23.0,87,70,54,30.24,30.01,5,1,0,0.00
2013-2-26,44.7,36.1,25.6,39.0,31.7,24.0,97,85,65,30.28,29.84,18,4,0,0.28
2013-2-27,52.8,46.2,40.3,52.0,43.6,39.0,100,91,70,29.84,29.50,17,4,0,0.46
2013-2-28,48.7,43.3,37.0,41.0,35.6,29.0,93,75,59,29.65,29.57,7,2,0,0.01